Bremerton, WA

7:34 PM PDT on April 25, 2017 (GMT -0700)
Bremerton National

Weather History for KPWT - September, 2011

Change the Weather History Date:

Thursday, September 8, 2011

  Actual Average Record
Temperature  
Mean Temperature 65 °F -  
Max Temperature 84 °F 69 °F 84 °F (2011)
Min Temperature 46 °F 48 °F 44 °F (2001)
Growing Degree Days 15 (Base 50)    
Moisture  
Dew Point 49 °F    
Average Humidity 53    
Maximum Humidity 82    
Minimum Humidity 32    
Precipitation  
Precipitation 0.00 in - - ()
Sea Level Pressure  
Sea Level Pressure 30.16 in    
Wind  
Wind Speed 2 mph (NNE)    
Max Wind Speed 10 mph    
Max Gust Speed -    
Visibility 10 miles    
Events      
Averages and records for this station are not official NWS values.
T = Trace of Precipitation, MM = Missing Value Source: NWS Daily Summary

Daily Weather History Graph

Daily Weather History Graph

Search for Another Location

Airport or City:

Trip Planner

Search our weather history database for the weather conditions in past years. The results will help you decide how hot, cold, wet, or windy it might be!

Date:

Astronomy

Sep. 08, 2011 Rise Set
Actual Time 6:38 AM PDT 7:37 PM PDT
Civil Twilight 6:07 AM PDT 8:08 PM PDT
Nautical Twilight 5:29 AM PDT 8:46 PM PDT
Astronomical Twilight 4:50 AM PDT 9:25 PM PDT
Moon 5:44 PM PDT (9/8) 2:50 AM PDT (9/8)
Length of Visible Light 14h 01m
Length of Day
12h 58m
Waxing Gibbous, 88% of the Moon is Illuminated
Sep 8
Waxing Gibbous
Sep 12
Full
Sep 20
Last Quarter
Sep 27
New
Oct 3
First Quarter

Hourly Weather History & Observations

Time (PDT) Temp. Heat Index Dew Point Humidity Pressure Visibility Wind Dir Wind Speed Gust Speed Precip Events Conditions
12:15 AM 53.6 °F - 44.6 °F 72% 30.11 in 10.0 mi Calm Calm - N/A   Clear
12:35 AM 53.6 °F - 44.6 °F 72% 30.12 in 10.0 mi Calm Calm - N/A   Clear
12:55 AM 53.6 °F - 44.6 °F 72% 30.12 in 10.0 mi Calm Calm - N/A   Clear
1:35 AM 51.8 °F - 42.8 °F 71% 30.13 in 10.0 mi Calm Calm - N/A   Clear
1:55 AM 51.8 °F - 44.6 °F 76% 30.13 in 10.0 mi Calm Calm - N/A   Clear
2:15 AM 51.8 °F - 42.8 °F 71% 30.13 in 10.0 mi Calm Calm - N/A   Clear
2:35 AM 51.8 °F - 42.8 °F 71% 30.12 in 10.0 mi Calm Calm - N/A   Clear
2:55 AM 48.2 °F - 41.0 °F 76% 30.14 in 10.0 mi Calm Calm - N/A   Clear
3:15 AM 50.0 °F - 42.8 °F 76% 30.13 in 10.0 mi Calm Calm - N/A   Clear
3:35 AM 50.0 °F - 42.8 °F 76% 30.13 in 10.0 mi Calm Calm - N/A   Clear
3:55 AM 50.0 °F - 42.8 °F 76% 30.14 in 10.0 mi Calm Calm - N/A   Clear
4:35 AM 50.0 °F - 42.8 °F 76% 30.14 in 10.0 mi Calm Calm - N/A   Clear
5:15 AM 48.2 °F - 42.8 °F 82% 30.14 in 10.0 mi Calm Calm - N/A   Clear
5:35 AM 48.2 °F - 42.8 °F 82% 30.15 in 10.0 mi Calm Calm - N/A   Clear
6:15 AM 48.2 °F - 42.8 °F 82% 30.14 in 10.0 mi Calm Calm - N/A   Clear
6:35 AM 46.4 °F - 41.0 °F 81% 30.15 in 10.0 mi Calm Calm - N/A   Clear
6:55 AM 48.2 °F - 42.8 °F 82% 30.15 in 10.0 mi Calm Calm - N/A   Clear
7:35 AM 55.4 °F - 46.4 °F 72% 30.15 in 10.0 mi Calm Calm - N/A   Clear
7:55 AM 55.4 °F - 46.4 °F 72% 30.15 in 10.0 mi ENE 4.6 mph - N/A   Clear
8:35 AM 64.4 °F - 48.2 °F 56% 30.17 in 10.0 mi NE 8.1 mph - N/A   Clear
9:15 AM 66.2 °F - 48.2 °F 52% 30.18 in 10.0 mi NE 4.6 mph - N/A   Clear
10:35 AM 73.4 °F - 51.8 °F 47% 30.18 in 10.0 mi NNE 9.2 mph - N/A   Clear
10:55 AM 75.2 °F - 51.8 °F 44% 30.18 in 10.0 mi NE 8.1 mph - N/A   Clear
11:15 AM 77.0 °F - 53.6 °F 44% 30.18 in 10.0 mi NNE 8.1 mph - N/A   Clear
11:35 AM 77.0 °F - 53.6 °F 44% 30.18 in 10.0 mi NE 8.1 mph - N/A   Clear
11:55 AM 78.8 °F - 53.6 °F 42% 30.18 in 10.0 mi NE 4.6 mph - N/A   Clear
12:15 PM 77.0 °F - 53.6 °F 44% 30.19 in 10.0 mi East 3.5 mph - N/A   Clear
12:35 PM 78.8 °F - 53.6 °F 42% 30.18 in 10.0 mi North 4.6 mph - N/A   Clear
12:55 PM 80.6 °F 80.3 °F 53.6 °F 39% 30.18 in 10.0 mi NNE 5.8 mph - N/A   Clear
1:15 PM 80.6 °F 80.3 °F 53.6 °F 39% 30.18 in 10.0 mi Calm Calm - N/A   Clear
1:35 PM 82.4 °F 81.4 °F 53.6 °F 37% 30.18 in 10.0 mi Calm Calm - N/A   Clear
1:55 PM 84.2 °F 83.0 °F 55.4 °F 37% 30.18 in 10.0 mi North 3.5 mph - N/A   Clear
2:15 PM 82.4 °F 81.7 °F 55.4 °F 39% 30.18 in 10.0 mi NE 8.1 mph - N/A   Clear
2:35 PM 82.4 °F 81.7 °F 55.4 °F 39% 30.17 in 10.0 mi North 6.9 mph - N/A   Clear
2:55 PM 82.4 °F 81.7 °F 55.4 °F 39% 30.17 in 10.0 mi NNE 9.2 mph - N/A   Clear
3:15 PM 82.4 °F 81.7 °F 55.4 °F 39% 30.17 in 10.0 mi NNE 9.2 mph - N/A   Clear
3:35 PM 82.4 °F 81.7 °F 55.4 °F 39% 30.17 in 10.0 mi NE 10.4 mph - N/A   Clear
3:55 PM 82.4 °F 81.7 °F 55.4 °F 39% 30.16 in 10.0 mi NE 9.2 mph - N/A   Clear
4:15 PM 82.4 °F 81.4 °F 53.6 °F 37% 30.16 in 10.0 mi NNE 10.4 mph - N/A   Clear
4:35 PM 82.4 °F - 51.8 °F 35% 30.17 in 10.0 mi NNE 9.2 mph - N/A   Clear
4:55 PM 82.4 °F - 51.8 °F 35% 30.17 in 10.0 mi NNE 8.1 mph - N/A   Clear
5:15 PM 82.4 °F - 50.0 °F 32% 30.17 in 10.0 mi NNE 9.2 mph - N/A   Clear
5:35 PM 82.4 °F - 50.0 °F 32% 30.17 in 10.0 mi North 6.9 mph - N/A   Clear
5:55 PM 80.6 °F - 50.0 °F 34% 30.17 in 10.0 mi NE 9.2 mph - N/A   Clear
6:15 PM 80.6 °F - 48.2 °F 32% 30.17 in 10.0 mi NNE 6.9 mph - N/A   Clear
6:35 PM 80.6 °F - 48.2 °F 32% 30.16 in 10.0 mi NE 5.8 mph - N/A   Clear
6:55 PM 78.8 °F - 48.2 °F 34% 30.17 in 10.0 mi NNE 4.6 mph - N/A   Clear
7:15 PM 75.2 °F - 48.2 °F 38% 30.17 in 10.0 mi Calm Calm - N/A   Clear
7:35 PM 71.6 °F - 48.2 °F 43% 30.17 in 10.0 mi Calm Calm - N/A   Clear
7:55 PM 66.2 °F - 46.4 °F 49% 30.17 in 10.0 mi Calm Calm - N/A   Clear
8:15 PM 64.4 °F - 48.2 °F 56% 30.18 in 10.0 mi Calm Calm - N/A   Clear
8:35 PM 62.6 °F - 48.2 °F 59% 30.19 in 10.0 mi Calm Calm - N/A   Clear
8:55 PM 62.6 °F - 48.2 °F 59% 30.19 in 10.0 mi NE 3.5 mph - N/A   Clear
9:15 PM 62.6 °F - 48.2 °F 59% 30.20 in 10.0 mi Calm Calm - N/A   Clear
9:35 PM 59.0 °F - 46.4 °F 63% 30.20 in 10.0 mi Calm Calm - N/A   Clear
9:55 PM 57.2 °F - 46.4 °F 67% 30.20 in 10.0 mi Calm Calm - N/A   Clear
10:15 PM 57.2 °F - 48.2 °F 72% 30.21 in 10.0 mi Calm Calm - N/A   Clear
10:35 PM 57.2 °F - 46.4 °F 67% 30.21 in 10.0 mi Calm Calm - N/A   Clear
10:55 PM 57.2 °F - 46.4 °F 67% 30.21 in 10.0 mi Calm Calm - N/A   Clear
11:15 PM 59.0 °F - 48.2 °F 67% 30.21 in 10.0 mi Calm Calm - N/A   Clear
11:35 PM 57.2 °F - 46.4 °F 67% 30.22 in 10.0 mi Calm Calm - N/A   Clear
11:55 PM 55.4 °F - 46.4 °F 72% 30.22 in 10.0 mi Calm Calm - N/A   Clear